Location: The Saddle
(36.8333°N, 80.3417°W)
Time: 08:44:37
(UTC-05:00)

Vanguard 2 Rocket - Pass Details

Date: 13 December 2023
Orbit: 555 x 3309 km, 32.9° (Epoch: 02 March)

Event Time Altitude Azimuth Distance (km) Brightness Sun altitude
Rises 15:09:30 0° 269° (W) 5,772 11.7 17.3°
Reaches altitude 10° 15:12:45 10° 268° (W) 5,062 11.5 16.9°
Maximum altitude 15:29:04 77° 186° (S) 3,216 10.1 14.7°
Drops below altitude 10° 15:49:27 10° 104° (ESE) 6,112 10.8 11.7°
Sets 15:53:51 0° 104° (ESE) 6,965 11.1 11.0°
